{"data":{"norad_id":66372,"epoch":"2026-09-20T15:44:05.724384Z","epoch_age_seconds":79926,"freshness":"FRESH","line1":"1 66372U 25254AA  26263.65562181  .00024850  00000+0  74378-3 0  9995","line2":"2 66372  53.1547  42.7064 0001802  83.4239 276.6968 15.34416150 48886","mean_motion":15.3441615,"eccentricity":0.0001802,"inclination_deg":53.1547,"raan_deg":42.7064,"arg_perigee_deg":83.4239,"mean_anomaly_deg":276.6968,"bstar":0.00074378,"rev_number":4888,"period_min":93.846770317166,"perigee_km":461.42252866312,"apogee_km":463.88795018621,"semimajor_km":6840.7922394247,"source":"CELESTRAK","updated_at":"2026-09-21T09:00:35.884106Z"}}